sat.trackr.live / text

‹ back to catalog

STARLINK-5825

NORAD 55783 · 2023-028AU

PAYLOAD ACTIVE UNKNOWN

§ Identity

Operator
Country
US
Launch date
2023-03-03
Launch site
AFWTR
Launch vehicle
Mass (kg)
RCS (m²)

Purposes: comms

External: N2YO · Heavens-Above · Gunter

§ Orbital elements

Epoch: 2026-05-25T00:13:09.886080Z

Period
96.11 min
Inclination
70.0004°
Eccentricity
0.0002745
Mean motion
14.98330702 rev/d
Perigee alt
570.1 km
Apogee alt
574.0 km
Semi-major
6,950.2 km
B*
-4.6479e-6
RAAN
12.2086°
Arg perigee
269.6401°
Mean anomaly
90.4444°
Rev number
17,845

§ Raw data

STARLINK-58251 55783U 23028AU  26145.00914220 -.00000148  00000+0 -46479-5 0  99982 55783  70.0004  12.2086 0002745 269.6401  90.4444 14.98330702178453

JSON: /api/v1/satellites/55783 · /tle

For live sub-satellite position, see the globe view (requires WebGL).

§ Visibility from observer

Set your observer location to see the next 7 days of passes ≥ 10°. The values pass through the URL so the page stays shareable.

No JS? Fill the form by hand. The geolocation button needs JavaScript.